ESNG

Details ICAO ESNG (GEV)
Name Gallivare
Region Sweden
Timezone Europe/Stockholm (UTC+2.0)
Plans Departing 5
Arriving 8
Stats Elevation 1,027 ft / 313 m (AMSL)
Location 67.132407° 20.814635°
Runways 1
Magnetic Variation 9.218° E
Sunrise 2018-05-20 00:17:47 UTC / 2018-05-20 02:17:47 Local
Sunset 2018-05-20 20:51:35 UTC / 2018-05-20 22:51:35 Local
Advertisement - Login to hide

Runways

ID Width Length Bearing (true) Bearing (mag) Surface Threshold Offset Overrun Length
12 148 ft / 45 m 5,603 ft / 1,708 m 117.96° 108.74° Asphalt 0 ft / 0 m 0 ft / 0 m
30 148 ft / 45 m 5,603 ft / 1,708 m 297.99° 288.77° Asphalt 0 ft / 0 m 0 ft / 0 m

Approach Navaids

Runway Type Ident Frequency Range Bearing (true) Bearing (mag) Slope Elevation
30 Localiser NG 108.10 MHz 18 nm / 33 km 297.94° 288.72° - 1,027 ft / 313 m (AMSL)
30 Glidescope NG 108.10 MHz 10 nm / 19 km 297.97° 288.75° 3.00° 1,027 ft / 313 m (AMSL)
30 DME NG 108.10 MHz 18 nm / 33 km - - - 1,034 ft / 315 m (AMSL)

Map

Weather


0- 5 10 15 20 25 30 35+ Temperature / ° C

Clouds and Precipitation
Forecast for 2018-05-20 18:00 UTC. Updated an hour ago

Ground ~20,000 ft ~40,000 ft Winds

METAR

ESNG 201550Z 23010KT 200V260 CAVOK 15/02 Q1015

TAF

Not found

Frequencies

Tower 122.10 MHz AFIS
Warning: Do not use this data for real-world aviation or navigation. No guarantee of current accuracy is given.